Погода в Среднем Постоле

Россия / Удмуртская Республика     56°45′23″N   52°47′06″E
темп.,
°C
ветер,
м/с
пор.,
м/с
влажн.,
%
обл.,
%
осадки,
мм/ч
давл.,
гПа
погр.,
м
18 мая, вт
вт1801:00+16ссз338533 0.1 101757
04:00+14с22875 0.1 101830
07:00+18с357647 0.0 1018189
10:00+22с34498 0.0 1018981
13:00+25с4535100 0.0 10181445
16:00+25ссв3433100 0.0 10181825
19:00+22в22545 0.0 101953
22:00+17всв396625 0.0 1020261
19 мая, ср
ср1901:00+14в39775 0.0 1020188
04:00+13в398557 0.0 1021224
07:00+15в487285 0.0 1022404
10:00+19в565265 0.0 1022879
13:00+23вюв563791 0.0 10211232
16:00+24вюв463526 0.0 10211397
19:00+21юв36512 0.0 1020164
22:00+15вюв24670 0.0 102163
20 мая, чт
чт2001:00+13вюв22680 0.0 102134
04:00+12вюв22733 0.0 102135
07:00+16вюв35595 0.0 1021203
10:00+22ююв34470 0.0 1021754
13:00+24ююв45385 0.0 10201767
16:00+24ююв563560 0.0 10191985
19:00+21юв38490 0.0 1018325
22:00+15юв25650 0.0 101867
21 мая, пт
пт2101:00+13вюв25663 0.0 101778
04:00+13вюв3116911 0.0 1016209
07:00+17юв4135714 0.0 1015510
10:00+19ююв695746 0.0 1015903
13:00+20ююз696399 0.8 10151306
16:00+21ююз685910 1.4 10151369
19:00+19юз4106732 0.8 1015568
22:00+14ююз311885 0.8 1016264
22 мая, сб
сб2201:00+13ююз39930 0.0 1017187
04:00+11юз39939 0.0 1019199
07:00+15зюз4877100 0.0 1020477
10:00+18юз4758100 0.0 10201248
13:00+21зюз5849100 0.0 10201495
16:00+19зсз3662100 0.0 1020805
19:00+18всв0069100 0.0 1019178
22:00+16вюв2678100 0.0 1018142